Cloud_Cover
72 64 100 100 68 90 100 99 100 100 99 66 8 97 5 7 6 5 60 28 6 34 7 15 4 5 5 9 5 45 16 63 90 5 72 100 98 0 62 100 0 2 0
100 99 100 96 13 97 100 100 100 100 43 23 100 96 7 7 5 56 26 5 5 8 34 5 8 5 24 10 7 5 5 5 5 5 5 73 63 6 5 28 14 1 1
90 43 70 8 29 100 78 29 99 88 84 100 100 76 36 5 5 37 19 5 5 9 5 5 8 22 99 100 100 100 62 43 100 5 6 40 99 100 82 5 5 20 5
20 12 54 99 65 71 37 100 100 100 96 42 100 56 5 5 5 5 10 5 7 48 68 16 7 50 100 100 100 100 100 100 100 100 100 87 31 91 100 77 49 5 43
71 41 5 5 100 100 89 99 60 34 100 99 56 16 14 39 28 5 55 75 62 90 15 5 13 65 67 37 36 87 100 100 100 100 100 100 100 47 92 24 31 87 20
100 60 6 5 100 62 5 5 6 32 100 100 92 62 19 22 5 13 32 95 12 21 100 22 8 84 15 72 18 36 100 100 100 100 100 100 100 98 7 10 100 100 7
53 26 8 64 69 6 5 5 5 95 100 88 32 57 100 9 43 5 10 85 5 5 82 40 77 100 68 97 78 17 92 98 99 100 100 100 93 100 100 100 100 31 5
30 88 5 20 5 5 5 12 29 100 100 10 5 99 100 100 38 6 7 5 16 14 84 98 100 100 100 98 100 100 99 100 100 100 100 100 100 100 100 100 100 98 81
80 53 59 14 92 60 99 74 100 100 46 5 53 98 100 94 53 7 5 6 96 15 45 100 98 100 99 82 100 100 100 100 98 100 100 100 100 96 100 100 100 100 100
100 46 100 100 100 75 60 100 100 100 37 6 20 100 100 100 63 60 59 98 99 100 100 77 100 7 52 80 93 100 99 100 100 100 100 100 100 100 100 98 100 98 100
99 98 100 100 98 100 100 100 100 81 5 5 21 99 100 100 26 98 19 99 98 91 85 100 100 99 98 100 100 96 100 100 100 100 100 100 100 100 100 100 79 98 100
100 100 100 100 83 100 100 100 30 69 64 9 99 100 100 96 90 37 56 93 100 99 31 30 19 100 100 100 100 100 100 100 100 100 100 100 100 100 100 100 97 100 100
100 100 100 100 100 100 100 82 94 90 15 28 41 100 100 86 99 100 100 99 90 97 61 97 46 86 92 100 100 100 100 100 100 100 100 100 100 100 100 100 100 100 100
100 100 100 100 100 98 56 61 83 90 62 42 94 100 100 84 99 100 100 100 99 100 97 84 100 91 39 79 100 100 100 100 100 100 100 100 100 100 100 100 100 100 100
48 46 97 8 100 100 100 67 39 16 52 72 5 55 100 100 100 94 47 100 97 100 99 63 72 93 100 100 97 85 98 100 100 100 100 100 100 100 100 100 100 100 100
56 81 6 0 8 18 43 51 14 3 6 82 36 33 6 84 100 100 98 92 92 54 98 100 81 100 100 98 100 100 91 90 96 100 100 100 100 100 100 100 100 100 100
10 1 5 4 0 4 5 5 4 5 6 100 86 18 100 71 100 100 100 93 99 84 33 63 99 100 100 100 100 100 96 100 100 100 100 97 100 100 100 100 100 100 100
5 21 100 10 3 5 6 4 6 17 61 62 100 100 100 100 100 100 100 98 99 94 97 99 100 100 100 100 100 98 100 100 100 100 100 100 100 100 100 100 100 100 100
65 87 100 0 3 100 54 15 10 44 71 100 100 100 90 47 100 100 91 100 81 67 100 100 100 100 100 100 64 74 38 100 100 95 99 100 100 100 100 100 100 100 100
11 16 0 0 0 5 44 9 40 96 100 57 99 100 86 56 100 100 100 100 12 44 98 100 100 100 100 100 98 6 100 19 100 100 95 98 100 100 100 100 100 100 100
4 0 0 0 0 3 0 4 22 63 100 100 100 16 10 14 43 27 74 100 44 20 78 100 65 78 54 48 100 54 73 94 86 9 69 82 91 100 100 100 100 100 100
3 5 16 5 0 0 4 2 8 4 5 28 100 100 5 14 22 18 10 10 24 39 21 8 12 9 63 78 64 19 24 70 48 14 76 100 100 100 100 100 100 100 100
0 0 0 0 0 0 0 0 0 0 0 5 1 2 2 0 5 7 56 46 26 1 20 28 14 40 20 7 17 5 5 30 45 66 89 100 100 100 100 100 100 100 100
0 0 0 0 0 0 0 0 0 0 1 5 5 29 28 38 14 16 13 44 7 1 10 18 90 5 0 6 60 100 91 28 5 95 100 100 93 100 100 100 100 100 100
59 44 100 3 0 0 0 0 0 0 0 0 0 0 0 3 3 0 3 4 0 6 83 23 0 5 4 15 6 88 100 100 100 100 100 100 97 100 100 100 100 100 100
13 5 97 83 7 7 1 11 2 0 0 0 0 0 1 7 16 1 0 0 0 2 6 0 2 5 14 32 5 5 46 93 55 77 87 100 100 100 83 99 100 100 100